Jackson, MI

2:36 PM EST on November 17, 2019 (GMT -0500)
Jackson County-Reynolds

Weather History for KJXN - June, 2019

Change the Weather History Date:

Saturday, June 1, 2019

  Actual Average Record
Temperature  
Mean Temperature 67 °F 63 °F  
Max Temperature 76 °F 74 °F 90 °F (1978)
Min Temperature 58 °F 52 °F 34 °F (1966)
Degree Days  
Heating Degree Days 0 4  
Month to date heating degree days 0 4  
Since 1 June heating degree days 0 4  
Since 1 July heating degree days 6636 6606  
Cooling Degree Days 2 2  
Month to date cooling degree days 2 2  
Year to date cooling degree days 12 39  
Since 1 June cooling degree days 2 2  
Growing Degree Days 16 (Base 50)    
Moisture  
Dew Point 61 °F    
Average Humidity 81    
Maximum Humidity 93    
Minimum Humidity 69    
Precipitation  
Precipitation 0.79 in 0.10 in 1.77 in (1969)
Month to date precipitation 0.79 0.10  
Year to date precipitation 12.80 10.70  
Sea Level Pressure  
Sea Level Pressure 29.78 in    
Wind  
Wind Speed 6 mph (WSW)    
Max Wind Speed 18 mph    
Max Gust Speed 36 mph    
Visibility 8 miles    
Events Rain , Thunderstorm    
T = Trace of Precipitation, MM = Missing Value Source: NWS Daily Summary

Daily Weather History Graph

Daily Weather History Graph

Search for Another Location

Airport or City:

Astronomy

Jun. 01, 2019 Rise Set
Actual Time 6:04 AM EDT 9:07 PM EDT
Civil Twilight 5:30 AM EDT 9:41 PM EDT
Nautical Twilight 4:47 AM EDT 10:24 PM EDT
Astronomical Twilight 3:56 AM EDT 11:16 PM EDT
Moon 5:11 AM EDT (6/1) 7:17 PM EDT (6/1)
Length of Visible Light 16h 11m
Length of Day
15h 03m
Waning Crescent, 4% of the Moon is Illuminated
Jun 1
Waning Crescent
Jun 3
New
Jun 10
First Quarter
Jun 17
Full
Jun 25
Last Quarter

Hourly Weather History & Observations

Time (EDT) Temp. Dew Point Humidity Pressure Visibility Wind Dir Wind Speed Gust Speed Precip Events Conditions
12:56 AM 64.0 °F 57.9 °F 80% 29.82 in 10.0 mi SW 6.9 mph - N/A   Clear
1:56 AM 64.0 °F 57.9 °F 80% 29.80 in 10.0 mi SSW 8.1 mph - N/A   Clear
2:56 AM 63.0 °F 59.0 °F 87% 29.79 in 10.0 mi SSW 9.2 mph - N/A   Partly Cloudy
3:56 AM 64.0 °F 60.1 °F 87% 29.80 in 10.0 mi SW 6.9 mph - N/A   Clear
4:30 AM 66.9 °F 61.0 °F 81% 29.83 in 10.0 mi WSW 6.9 mph - N/A Thunderstorm Mostly Cloudy
4:45 AM 66.0 °F 61.0 °F 84% 29.82 in 10.0 mi SSW 6.9 mph - N/A   Mostly Cloudy
4:56 AM 64.9 °F 60.1 °F 84% 29.79 in 10.0 mi SSW 8.1 mph - N/A   Scattered Clouds
5:56 AM 64.0 °F 60.1 °F 87% 29.78 in 10.0 mi SSW 6.9 mph - N/A   Clear
6:56 AM 64.0 °F 61.0 °F 90% 29.79 in 10.0 mi SW 6.9 mph - N/A   Clear
7:56 AM 66.9 °F 62.1 °F 84% 29.78 in 10.0 mi SW 9.2 mph - N/A   Clear
8:56 AM 69.1 °F 63.0 °F 81% 29.78 in 10.0 mi Variable 5.8 mph - N/A   Clear
9:56 AM 72.0 °F 64.9 °F 78% 29.78 in 10.0 mi SW 6.9 mph - N/A   Clear
10:56 AM 73.9 °F 64.0 °F 71% 29.79 in 10.0 mi West 4.6 mph - N/A   Scattered Clouds
11:05 AM 73.0 °F 64.0 °F 73% 29.81 in 10.0 mi West 8.1 mph - N/A   Mostly Cloudy
11:43 AM 75.0 °F 64.9 °F 71% 29.81 in 10.0 mi SW 8.1 mph - N/A   Scattered Clouds
11:56 AM 75.0 °F 64.9 °F 71% 29.81 in 10.0 mi WSW 8.1 mph - N/A   Scattered Clouds
12:41 PM 75.0 °F 64.9 °F 71% 29.80 in 10.0 mi WNW 5.8 mph - N/A Thunderstorm Overcast
12:52 PM 73.4 °F 64.4 °F 73% 29.80 in 10.0 mi WNW 11.5 mph 16.1 mph N/A Thunderstorm Overcast
12:56 PM 73.0 °F 64.9 °F 76% 29.79 in 10.0 mi NW 11.5 mph - N/A Thunderstorm Thunderstorm
1:07 PM 70.0 °F 66.0 °F 87% 29.81 in 1.8 mi NW 11.5 mph 20.7 mph 0.09 in Rain , Thunderstorm Thunderstorms and Rain
1:17 PM 66.9 °F 63.0 °F 87% 29.81 in 2.5 mi West 6.9 mph 20.7 mph 0.16 in Rain , Thunderstorm Thunderstorms and Rain
1:26 PM 66.9 °F 64.0 °F 90% 29.82 in 1.8 mi Calm Calm - 0.20 in Rain , Thunderstorm Light Thunderstorms and Rain
1:29 PM 66.9 °F 64.0 °F 90% 29.82 in 3.0 mi Calm Calm - 0.20 in Rain , Thunderstorm Light Thunderstorms and Rain
1:41 PM 66.9 °F 64.0 °F 90% 29.82 in 1.8 mi WSW 4.6 mph - 0.26 in Rain , Thunderstorm Thunderstorms and Rain
1:52 PM 66.2 °F 64.4 °F 94% 29.80 in 3.0 mi NW 5.8 mph - 0.29 in Rain , Thunderstorm Light Thunderstorms and Rain
1:56 PM 66.9 °F 64.0 °F 90% 29.78 in 8.0 mi NNW 6.9 mph - 0.29 in Thunderstorm Thunderstorm
2:04 PM 66.9 °F 64.0 °F 90% 29.79 in 8.0 mi NNW 5.8 mph - N/A Thunderstorm Scattered Clouds
2:23 PM 68.0 °F 64.0 °F 87% 29.78 in 10.0 mi Calm Calm - N/A   Scattered Clouds
2:56 PM 68.0 °F 62.1 °F 81% 29.81 in 10.0 mi NNW 6.9 mph - N/A   Partly Cloudy
3:56 PM 70.0 °F 61.0 °F 73% 29.76 in 10.0 mi WSW 3.5 mph - N/A   Clear
4:56 PM 71.1 °F 62.1 °F 73% 29.72 in 10.0 mi SSE 5.8 mph - N/A   Clear
5:56 PM 70.0 °F 62.1 °F 76% 29.73 in 10.0 mi Calm Calm - N/A   Clear
6:56 PM 68.0 °F 62.1 °F 81% 29.76 in 10.0 mi ENE 11.5 mph - N/A   Mostly Cloudy
7:21 PM 66.9 °F 61.0 °F 81% 29.76 in 10.0 mi East 16.1 mph 23.0 mph N/A Thunderstorm Overcast
7:36 PM 66.0 °F 60.1 °F 81% 29.75 in 10.0 mi East 12.7 mph 21.9 mph N/A   Overcast
7:52 PM 66.2 °F 60.8 °F 83% 29.74 in 10.0 mi ESE 10.4 mph 23.0 mph N/A Thunderstorm Mostly Cloudy
7:56 PM 64.9 °F 60.1 °F 84% 29.72 in 9.0 mi ESE 9.2 mph 19.6 mph 0.01 in Rain , Thunderstorm Light Rain
8:05 PM 64.0 °F 60.1 °F 87% 29.73 in 9.0 mi ESE 10.4 mph 17.3 mph 0.00 in Rain , Thunderstorm Light Thunderstorms and Rain
8:58 PM 62.1 °F 61.0 °F 96% 29.74 in - SE 9.2 mph - 0.12 in Rain , Thunderstorm Light Thunderstorms and Rain
9:15 PM 59.0 °F 55.9 °F 90% 29.80 in 1.2 mi WNW 13.8 mph 33.4 mph 0.36 in Rain , Thunderstorm Heavy Rain
9:22 PM 59.0 °F 55.9 °F 90% 29.78 in 2.0 mi West 6.9 mph 24.2 mph 0.40 in Rain , Thunderstorm Heavy Thunderstorms and Rain
9:30 PM 59.0 °F 57.0 °F 93% 29.77 in 10.0 mi Calm Calm - 0.40 in Thunderstorm Thunderstorm
9:42 PM 59.0 °F 55.9 °F 90% 29.76 in 10.0 mi NE 3.5 mph - 0.40 in   Mostly Cloudy
9:56 PM 59.0 °F 57.0 °F 93% 29.75 in 10.0 mi Calm Calm - 0.40 in   Mostly Cloudy
10:56 PM 59.0 °F 57.9 °F 96% 29.77 in 6.0 mi SSE 3.5 mph - 0.07 in Rain Light Rain
11:38 PM 57.9 °F 57.9 °F 100% 29.74 in 10.0 mi NE 6.9 mph - 0.02 in   Mostly Cloudy
11:56 PM 59.0 °F 57.9 °F 96% 29.73 in 10.0 mi Calm Calm - 0.02 in   Mostly Cloudy